Regional Weather Roundup
Issued by NWS

Home | Current Version | Previous Version | Graphics & Text | Print | Product List | Glossary Off
Versions: 1 2 3 4 5 6 7 8 9 10 11 12 13 14 15 16 17 18 19 20 21 22 23 24 25 26 27 28 29 30 31 32 33 34 35 36 37 38 39 40 41 42 43 44 45 46 47 48 49 50

000
ASUS43 KMKX 230211
RWRWI

WISCONSIN REGIONAL WEATHER ROUNDUP
NATIONAL WEATHER SERVICE MILWAUKEE/SULLIVAN WI
900 PM CDT SAT APR 22 2017

NOTE: "FAIR" INDICATES FEW OR NO CLOUDS BELOW 12,000 FEET WITH NO
SIGNIFICANT WEATHER AND/OR OBSTRUCTIONS TO VISIBILITY.

WIZ001-002-006>008-014>016-023>028-230300-
NORTHWEST WISCONSIN

CITY           SKY/WX    TMP DP  RH WIND       PRES   REMARKS
SUPERIOR ARPT  PTCLDY    60  36  41 SW7       30.02S
ASHLAND        PTCLDY    55  33  43 SW7       30.03S
HAYWARD        CLEAR     60  33  36 SW7       30.06S
SIREN          CLEAR     57  32  38 CALM      30.08R
CUMBERLAND     CLEAR     52  34  50 SW7       30.08S
RICE LAKE      CLEAR     58  33  39 SW3       30.10S
CHETEK         CLEAR     54  34  45 SW3       30.09S
LADYSMITH      CLEAR     56  33  41 SW6       30.09S
EAU CLAIRE     CLEAR     58  33  39 SW6       30.10R
MENOMONIE      CLEAR     57  33  40 S6        30.10S
NEW RICHMOND   CLEAR     56  35  44 SW5       30.10F
OSCEOLA        CLEAR     58  33  39 SW5       30.12S
$$

WIZ003>005-009-010-017-018-230300-
NORTH CENTRAL WISCONSIN

CITY           SKY/WX    TMP DP  RH WIND       PRES   REMARKS
MANITOWISH WTR CLEAR     55  31  39 SW5       30.05S
ARBOR VITAE    CLEAR     52  32  47 CALM      30.06R
WOODRUFF       CLEAR     52  32  47 CALM      30.06R
RHINELANDER    CLEAR     53  31  42 SW7       30.07F
EAGLE RIVER    CLEAR     49  31  50 SW6       30.05S
LAND O LAKES   CLEAR     56  27  32 W3        30.05S
PHILLIPS       CLEAR     54  34  47 CALM      30.07R
TOMAHAWK       CLEAR     53  30  41 CALM      30.08F
MEDFORD        CLEAR     54  34  46 SW6       30.09F
MERRILL        CLEAR     54  34  46 SW5       30.09F
$$

WIZ029-030-035-036-043>047-230300-
CENTRAL WISCONSIN

CITY           SKY/WX    TMP DP  RH WIND       PRES   REMARKS
WAUSAU         CLEAR     54  34  46 SW6       30.09S
MOSINEE        CLEAR     52  32  46 SW5       30.12S
MARSHFIELD     CLEAR     55  32  41 W6        30.11S
STEVENS POINT  CLEAR     47  32  55 CALM      30.13R
WAUPACA        CLEAR     54  30  40 CALM      30.13S
WAUTOMA        CLEAR     50  33  52 CALM      30.13S
WISC RAPIDS    CLEAR     50  33  52 CALM      30.13R
CAMP DOUGLAS   CLEAR     47  39  73 W5        30.13S
$$

WIZ011>013-019>022-031-037>040-048>050-230300-
NORTHEAST WISCONSIN

CITY           SKY/WX    TMP DP  RH WIND       PRES   REMARKS
ANTIGO         CLEAR     49  32  51 SW8       30.10S
SHAWANO        CLEAR     58  31  34 SW3       30.10S
OCONTO         CLEAR     56  30  37 SW8       30.09R
STURGEON BAY   CLEAR     50  34  54 S12       30.10S
GREEN BAY      CLEAR     54  37  52 SW7       30.12R
MANITOWOC      CLEAR     49  28  44 SW7       30.14S
APPLETON       PTCLDY    52  30  43 VRB6      30.11S
CLINTONVILLE   CLEAR     54  32  43 SW5       30.11S
OSHKOSH        CLEAR     52  34  50 S8        30.13R
$$

WIZ032>034-041-042-053>061-230300-
SOUTHWEST WISCONSIN

CITY           SKY/WX    TMP DP  RH WIND       PRES   REMARKS
LA CROSSE      CLEAR     57  33  40 S5        30.13S
SPARTA         CLEAR     48  33  55 CALM      30.15S
VIROQUA        CLEAR     58  22  25 SW3       30.15S
BOSCOBEL       CLEAR     52  36  54 CALM      30.15S
PRAIRIE DU CHI CLEAR     53  35  50 CALM      30.15S
PLATTEVILLE    CLEAR     57  26  29 CALM      30.17R
$$

WIZ056-057-062-063-064-067-068-230300-
SOUTH CENTRAL WISCONSIN

CITY           SKY/WX    TMP DP  RH WIND       PRES   REMARKS
REEDSBURG      CLEAR     54  28  37 CALM      30.14S
BARABOO/DELLS  CLEAR     50  31  48 CALM      30.14S
LONE ROCK      CLEAR     51  37  58 CALM      30.15R
MINERAL POINT  CLEAR     59  19  21 SW3       30.16R
MADISON        CLEAR     51  31  46 CALM      30.15R
MIDDLETON      CLEAR     49  38  65 CALM      30.16R
WATERTOWN      CLEAR     49  32  52 CALM      30.15R
MONROE         CLEAR     55  27  33 CALM      30.16R
JANESVILLE     PTCLDY    55  28  35 CALM      30.15R
$$

WIZ051-052-058>065-066-070>072-230300-
SOUTHEAST WISCONSIN

CITY           SKY/WX    TMP DP  RH WIND       PRES   REMARKS
MILWAUKEE      PTCLDY    50  21  32 CALM      30.16R
WAUKESHA       CLEAR     50  21  32 CALM      30.17R
MILWAUKEE/TIMM CLEAR     52  16  24 CALM      30.17R
RACINE         CLEAR     47  25  42 CALM      30.17R
KENOSHA        CLEAR     44  25  47 CALM      30.16R
FOND DU LAC    CLEAR     54  32  43 SW6       30.14R
SHEBOYGAN      CLEAR     47  31  53 S6        30.15S
WEST BEND      CLEAR     46  32  57 CALM      30.16S
JUNEAU         CLEAR     52  33  48 CALM      30.15S
$$

LSZ147-162-230300-
LAKE SUPERIOR

STATION/POSITION TIME  TEMP    WIND        PRES    WAVE
                       AIR SEA DIR/SP/G            HT/PER
                 (UTC) (F)     (DEG/KT/KT) (MB)    (FT/S)
DEVILS ISLAND    0200   50      20/ 16/ 17 1018.0R
SAXON HARBOR     0140   56     200/  3/  5 1016.3S
$$

LMZ867-665-643>646-230300-
LAKE MICHIGAN

STATION/POSITION TIME  TEMP    WIND        PRES    WAVE
                       AIR SEA DIR/SP/G            HT/PER
                 (UTC) (F)     (DEG/KT/KT) (MB)    (FT/S)
CHAMBERS ISLAND  0140   52     160/  6/ 15 1017.9S
N MID LAKE BUOY  0050   42 37  190/ 12/ 14 1019.9F   1/ 3
NORTHPORT PIER   0140   49     180/  6/ 10 1018.3S
SISTER BAY       0051   51     190/ 12/ 15   N/A
KEWAUNEE LAKESHO 0142   50     210/  9/ 11 1019.4F
SHEBOYGAN LAKESH 0200   51     210/  8/  8 1020.9S
PORT WASHINGTON  0140   51     260/  2/  3 1022.0S
MILWAUKEE LAKESH 0150   50      20/  1/  1   N/A
KENOSHA   LAKESH 0200   50        CALM     1021.3
$$

TC  - TEMPERATURE IN CELSIUS
VSB - VISIBILITY IN STATUTE MILES
WCI - WIND CHILL INDEX
HX  - HEAT INDEX





USA.gov is the U.S. government's official web portal to all federal, state and local government web resources and services.